Location: Newark
(42.2947°N, 5.1925°W)
Time: 18:25:39
(UTC+00:00)

STARLINK 1065 - Pass Details

Date: 11 December 2019
Orbit: 548 x 551 km, 53.0° (Epoch: 17 January)

Event Time Altitude Azimuth Distance (km) Brightness Sun altitude
Exits shadow 05:02:20 42° 68° (ENE) 839 4.8 -28.1°
Drops below altitude 10° 05:05:43 10° 106° (ESE) 1,917 7.3 -27.5°
Sets 05:08:03 0° 112° (ESE) 2,820 8.4 -27.1°
